This demonstration page uses our WeatherBlox Daily Observations layout. Learn more.

Left ArrowRight Arrow

39.01783, -85.05884

Hourly Observations for September 9, 2021

Temp ( °F °C ) Dew Point ( °F °C ) Humidity (%) Winds ( mph kmh ) Pressure ( in mb ) Visibility ( mi km ) Precip ( " mm )
12:52 am 00:52 Clear 62 16.7 52 11.1 70 70 Calm 29.85 1011 10 16 0.00 0.00
1:52 am 01:52 Clear 61 16.1 52 11.1 72 72 Calm 29.85 1011 10 16 0.00 0.00
2:52 am 02:52 Clear 59 15 51 10.6 75 75 W 3 6 29.85 1011 10 16 0.00 0.00
3:52 am 03:52 Clear 57 13.9 51 10.6 81 81 W 7 11 29.86 1011 10 16 0.00 0.00
4:52 am 04:52 Clear 58 14.4 50 10 75 75 W 5 7 29.86 1011 10 16 0.00 0.00
5:52 am 05:52 Clear 57 13.9 51 10.6 81 81 Calm 29.88 1012 10 16 0.00 0.00
6:52 am 06:52 Mostly Clear 58 14.4 51 10.6 78 78 NNW 7 11 29.89 1012 10 16 0.00 0.00
7:52 am 07:52 Mostly Sunny 58 14.4 51 10.6 78 78 Calm 29.92 1013 10 16 0.00 0.00
8:52 am 08:52 Mostly Sunny 63 17.2 53 11.7 70 70 N 7 11 29.94 1014 10 16 0.00 0.00
9:52 am 09:52 Mostly Sunny 67 19.4 54 12.2 63 63 N 7 11 29.94 1014 10 16 0.00 0.00
10:52 am 10:52 Sunny 70 21.1 54 12.2 57 57 NNW 9 15 29.96 1015 10 16 0.00 0.00
11:52 am 11:52 Partly Cloudy 72 22.2 52 11.1 50 50 NNW 8 13 29.96 1015 10 16 0.00 0.00
12:52 pm 12:52 Mostly Cloudy 74 23.3 53 11.7 48 48 NNW 9 15 29.96 1014 10 16 0.00 0.00
1:52 pm 13:52 Mostly Cloudy 74 23.3 52 11.1 46 46 NNW 13 20 29.95 1014 10 16 0.00 0.00
2:52 pm 14:52 Mostly Cloudy 76 24.4 53 11.7 45 45 WNW 13 20 29.95 1014 10 16 0.00 0.00
3:52 pm 15:52 Mostly Cloudy 73 22.8 52 11.1 48 48 NW 15 24 29.94 1014 10 16 0.00 0.00
4:52 pm 16:52 Mostly Cloudy 76 24.4 52 11.1 43 43 WNW 13 20 29.94 1014 10 16 0.00 0.00
5:52 pm 17:52 Mostly Cloudy 76 24.4 51 10.6 42 42 N 15 24 29.95 1014 10 16 0.00 0.00
6:52 pm 18:52 Partly Cloudy 73 22.8 50 10 44 44 NW 8 13 29.96 1014 10 16 0.00 0.00
7:52 pm 19:52 Partly Cloudy 71 21.7 51 10.6 49 49 NW 7 11 29.97 1015 10 16 0.00 0.00
8:52 pm 20:52 Partly Cloudy 69 20.6 51 10.6 53 53 NNW 5 7 29.98 1015 10 16 0.00 0.00
9:52 pm 21:52 Mostly Clear 66 18.9 52 11.1 61 61 NNW 5 7 30.00 1016 10 16 0.00 0.00
10:52 pm 22:52 Clear 63 17.2 52 11.1 68 68 WNW 3 6 30.01 1016 10 16 0.00 0.00
11:52 pm 23:52 Clear 61 16.1 51 10.6 70 70 Calm 30.02 1017 10 16 0.00 0.00

Powered by AerisWeather